[[[{"header":{"parameterUnit":"kt","parameterCategory":2,"dx":1,"dy":1,"la1":30.253999710083008,"la2":30.299108505249023,"lo1":-89.0895004272461,"lo2":-89.04439544677734,"nx":28,"ny":28,"refTime":"2022-10-19T09:00:00:Z","depth":"0","parameterNumber":2,"parameterNumberName":"U-component_of_CURRENTS"},"data":[0.3273,0.3226,0.3278,0.3398,0.3486,0.352,0.3569,0.3611,0.3769,0.4056,0.4356,0.4649,0.5395,0.6193,0.665,0.6723,0.6315,0.618,0.5959,0.6386,0.6384,0.6383,0.6303,0.6377,0.6375,0.5428,0.5419,0.5413,0.3372,0.337,0.3393,0.3481,0.3574,0.3661,0.3787,0.3826,0.3964,0.4242,0.4472,0.5112,0.5712,0.6345,0.7059,0.704,0.6978,0.6914,0.6493,0.6463,0.7091,0.7052,0.7286,0.7286,0.7287,0.7287,0.7287,0.7287,0.3544,0.3504,0.35,0.3589,0.3663,0.377,0.3807,0.398,0.4149,0.4383,0.467,0.4957,0.565,0.6376,0.6661,0.7135,0.6824,0.7109,0.6875,0.6582,0.6478,0.7074,0.7386,0.7384,0.7383,0.7382,0.7381,0,0.3678,0.3677,0.3671,0.3727,0.3784,0.3878,0.4012,0.4076,0.4374,0.4515,0.4787,0.4993,0.5552,0.5975,0.6459,0.6751,0.66,0.6935,0.672,0.6613,0.6253,0.6195,0.6725,0.7038,0.7034,0.7032,0.703,0.7028,0.384,0.3804,0.386,0.3879,0.3918,0.4008,0.4086,0.4303,0.4424,0.4737,0.4812,0.511,0.5345,0.5838,0.6214,0.6582,0.6366,0.6844,0.6799,0.6577,0.6349,0.6026,0.5968,0.699,0.6995,0.6999,0.7002,0,0.3903,0.3953,0.3963,0.4062,0.4096,0.4137,0.4319,0.4413,0.4587,0.4753,0.4804,0.5073,0.5356,0.5601,0.5927,0.6081,0.6249,0.645,0.6499,0.6528,0.6507,0.6286,0.6172,0.6123,0.6701,0.6705,0.6708,0,0.4035,0.405,0.4131,0.4123,0.417,0.4315,0.4406,0.4532,0.4722,0.4847,0.5006,0.5134,0.5364,0.5568,0.5749,0.6044,0.6039,0.621,0.6236,0.6293,0.63,0.6134,0.5909,0.6187,0.6185,0.6183,0.6182,0,0.4105,0.4194,0.4191,0.4223,0.4355,0.4404,0.4499,0.4679,0.4772,0.4956,0.5019,0.523,0.5313,0.5515,0.571,0.5672,0.6,0.5949,0.6142,0.6145,0.6232,0.6236,0.633,0.618,0.6179,0.6178,0.6178,0,0.4218,0.4251,0.4264,0.4368,0.4404,0.4447,0.4608,0.4693,0.4876,0.495,0.5091,0.5168,0.534,0.5345,0.5614,0.5533,0.5661,0.5747,0.5756,0.5768,0.5714,0.5957,0.6242,0.6056,0.5823,0.582,0.5817,0,0.426,0.4292,0.4363,0.4403,0.4437,0.4562,0.4636,0.4747,0.4843,0.4945,0.5063,0.514,0.5184,0.5227,0.5351,0.5449,0.558,0.5453,0.5597,0.5601,0.5621,0.5869,0.5971,0.6181,0.5776,0.578,0.5783,0,0.4296,0.437,0.4377,0.4406,0.4532,0.4568,0.4661,0.4764,0.4819,0.4911,0.4981,0.5102,0.5154,0.5167,0.5211,0.5308,0.551,0.5295,0.5296,0.5356,0.5739,0.5803,0.5836,0.5524,0.5529,0.5533,0.5751,0,0.434,0.4374,0.4395,0.4485,0.4539,0.4573,0.4658,0.4729,0.4764,0.4801,0.492,0.4976,0.5023,0.5063,0.5058,0.5205,0.5193,0.5161,0.5055,0.5209,0.5285,0.5311,0.4958,0.4955,0.4953,0.4951,0,0,0.4369,0.4388,0.4471,0.4516,0.4539,0.4599,0.4626,0.4672,0.4713,0.4752,0.4731,0.4839,0.4834,0.4925,0.4987,0.4989,0.5033,0.4902,0.5132,0.5152,0.5171,0.5251,0.5278,0.4946,0.4945,0.4944,0.4943,0,0.4379,0.444,0.4468,0.4513,0.4563,0.4589,0.4606,0.4643,0.4661,0.4714,0.471,0.4781,0.4771,0.4801,0.4801,0.495,0.4887,0.4946,0.5007,0.5108,0.5131,0.5152,0.5235,0.5262,0.4937,0.4938,0.4938,0,0.4419,0.4456,0.4463,0.4528,0.454,0.4575,0.4553,0.4578,0.4596,0.4554,0.4587,0.4617,0.46,0.466,0.4676,0.4617,0.4763,0.4677,0.4692,0.4666,0.4763,0.4791,0.4817,0.4487,0.4486,0.4485,0,0,0.4451,0.4488,0.4522,0.4528,0.4557,0.4555,0.4561,0.4555,0.4563,0.4569,0.4547,0.454,0.4563,0.4553,0.4564,0.4605,0.4609,0.4624,0.4646,0.4663,0.4648,0.4749,0.4776,0.448,0.448,0.4479,0,0,0.4434,0.4478,0.4482,0.4507,0.4528,0.4519,0.4527,0.452,0.4542,0.4534,0.4473,0.4463,0.4517,0.4473,0.4419,0.4501,0.4413,0.4423,0.4516,0.4541,0.4562,0.454,0.4287,0,0,0,0,0,0.4459,0.4482,0.4487,0.4489,0.4505,0.4531,0.4533,0.4501,0.4472,0.4499,0.4497,0.4402,0.4448,0.4398,0.439,0.4422,0.4415,0.4426,0.4437,0.4568,0.4596,0.4619,0,0,0,0,0,0,0.446,0.4465,0.4484,0.4477,0.4479,0.4529,0.4468,0.4462,0.4468,0.4461,0.4415,0.4401,0.4352,0.4394,0.4388,0.4421,0.4288,0.4419,0.4429,0.4438,0.4578,0.46,0.462,0,0,0,0,0,0.446,0.4465,0.4498,0.4476,0.4478,0.4446,0.4466,0.4461,0.4473,0.4404,0.4392,0.4446,0.4355,0.4345,0.439,0.4426,0.4291,0.429,0.4426,0.4433,0.444,0.4589,0,0,0,0,0,0,0.4461,0.447,0.4498,0.4496,0.4449,0.4443,0.4442,0.4459,0.4414,0.4404,0.443,0.4424,0.4358,0.435,0.4343,0.4433,0.4294,0.4292,0.4291,0.4432,0.4438,0.4443,0,0,0,0,0,0,0.4467,0.4471,0.4497,0.4465,0.446,0.444,0.4439,0.443,0.4412,0.4443,0.4437,0.4427,0.4339,0.4353,0.4347,0.4337,0.4296,0.4294,0.4293,0.4292,0.4436,0.4441,0,0,0,0,0,0,0.4468,0.4471,0.4466,0.4462,0.4458,0.4448,0.4428,0.4432,0.4428,0.4445,0.4421,0.4417,0.4341,0.4336,0.4351,0.4343,0.4338,0.4296,0.4295,0.4294,0.4293,0,0,0,0,0,0,0,0.4468,0.4459,0.4496,0.446,0.4456,0.4484,0.4485,0.4485,0.4427,0.4424,0.4421,0.4419,0.4306,0.4304,0.4302,0.4349,0,0,0.4296,0.4295,0,0,0,0,0,0,0,0,0.4457,0.4458,0.4496,0.4495,0.4494,0.4484,0.4485,0.4485,0.4427,0.4424,0.4422,0.442,0.4305,0.4304,0.4302,0,0,0,0,0,0,0,0,0,0,0,0,0,0,0,0.4496,0.4495,0,0.4484,0.4485,0.4485,0.4426,0.4424,0.4423,0.4421,0.4305,0.4304,0.4302,0,0,0,0,0,0,0,0,0,0,0,0,0,0,0,0,0,0,0,0,0,0,0,0,0,0,0,0,0,0,0,0,0,0,0,0,0,0,0,0,0,0,0,0,0,0,0,0,0,0,0,0,0,0,0,0,0,0,0,0,0,0,0,0,0,0,0,0,0]}],[{"header":{"parameterUnit":"kt","parameterCategory":2,"dx":1,"dy":1,"la1":30.253999710083008,"la2":30.299108505249023,"lo1":-89.0895004272461,"lo2":-89.04439544677734,"nx":28,"ny":28,"refTime":"2022-10-19T09:00:00:Z","depth":"0","parameterNumber":3,"parameterNumberName":"V-component_of_CURRENTS"},"data":[-0.1444,-0.1327,-0.1251,-0.0947,-0.0797,-0.0504,-0.0349,-0.0108,0.0089,0.0549,0.0882,0.114,0.1283,0.0241,-0.0469,-0.0824,-0.1341,-0.1523,-0.1839,-0.131,-0.1333,-0.1355,-0.1335,-0.1143,-0.1144,-0.222,-0.2228,-0.2234,-0.1482,-0.1396,-0.1249,-0.1073,-0.0877,-0.0838,-0.0619,-0.0475,-0.0248,-0.006,0.0074,0.0358,0.0104,-0.0305,-0.0752,-0.1136,-0.1566,-0.1358,-0.1599,-0.1755,-0.1328,-0.1297,-0.1093,-0.1093,-0.1093,-0.1093,-0.1093,-0.1093,-0.1589,-0.147,-0.1375,-0.1246,-0.1091,-0.091,-0.0769,-0.0693,-0.0564,-0.0438,-0.049,-0.0342,-0.0509,-0.089,-0.1213,-0.1529,-0.1839,-0.1541,-0.1669,-0.1953,-0.2102,-0.1734,-0.1632,-0.1634,-0.1636,-0.1638,-0.1639,0,-0.1694,-0.1643,-0.1531,-0.1395,-0.128,-0.1126,-0.1036,-0.0977,-0.0997,-0.0951,-0.0894,-0.0904,-0.1118,-0.1187,-0.1477,-0.1629,-0.1981,-0.1838,-0.1809,-0.1712,-0.1983,-0.2149,-0.1824,-0.1697,-0.17,-0.1701,-0.1703,-0.1704,-0.1871,-0.179,-0.1626,-0.1547,-0.1477,-0.137,-0.129,-0.131,-0.1287,-0.1319,-0.1274,-0.1373,-0.1377,-0.1547,-0.176,-0.1911,-0.2081,-0.1889,-0.194,-0.1895,-0.2019,-0.2295,-0.2429,-0.1732,-0.1728,-0.1725,-0.1723,0,-0.194,-0.1906,-0.1763,-0.1658,-0.1623,-0.153,-0.1455,-0.1428,-0.1496,-0.146,-0.1474,-0.1615,-0.1673,-0.1842,-0.193,-0.2039,-0.2153,-0.2109,-0.1938,-0.1935,-0.1948,-0.205,-0.2264,-0.2415,-0.2125,-0.2124,-0.2124,0,-0.2028,-0.1944,-0.186,-0.179,-0.1667,-0.1674,-0.1602,-0.1625,-0.167,-0.1635,-0.1808,-0.1786,-0.1964,-0.2009,-0.2096,-0.2136,-0.2125,-0.2201,-0.2216,-0.208,-0.207,-0.2056,-0.2155,-0.2212,-0.2212,-0.2213,-0.2213,0,-0.2121,-0.1996,-0.1893,-0.186,-0.1787,-0.1755,-0.1742,-0.1801,-0.1798,-0.1891,-0.19,-0.1989,-0.1998,-0.2061,-0.2145,-0.2182,-0.2162,-0.2223,-0.2236,-0.2236,-0.2127,-0.212,-0.1957,-0.2213,-0.2213,-0.2214,-0.2214,0,-0.2171,-0.2095,-0.1965,-0.1894,-0.1882,-0.1832,-0.1862,-0.1847,-0.1933,-0.1975,-0.2038,-0.2123,-0.214,-0.219,-0.2221,-0.2241,-0.2269,-0.2291,-0.2291,-0.2329,-0.238,-0.2207,-0.2065,-0.202,-0.2306,-0.2307,-0.2308,0,-0.2267,-0.2138,-0.2134,-0.2025,-0.1984,-0.2042,-0.2015,-0.2046,-0.2112,-0.2135,-0.2203,-0.2218,-0.2283,-0.2293,-0.2296,-0.2345,-0.2321,-0.2347,-0.2394,-0.2395,-0.2409,-0.2303,-0.214,-0.2085,-0.2317,-0.2316,-0.2316,0,-0.2373,-0.2302,-0.2286,-0.2257,-0.2252,-0.2219,-0.2207,-0.2228,-0.2247,-0.2254,-0.2257,-0.2277,-0.2333,-0.2357,-0.2405,-0.2392,-0.2339,-0.2444,-0.2446,-0.2436,-0.2322,-0.2318,-0.2311,-0.2371,-0.237,-0.2369,-0.2323,0,-0.2438,-0.2406,-0.2363,-0.2368,-0.2339,-0.2288,-0.2335,-0.2335,-0.238,-0.2414,-0.2415,-0.2444,-0.2474,-0.2471,-0.2515,-0.2484,-0.251,-0.2548,-0.2602,-0.2523,-0.2512,-0.2505,-0.2616,-0.2618,-0.262,-0.2622,0,0,-0.2571,-0.2545,-0.2599,-0.2546,-0.2518,-0.2592,-0.2534,-0.2554,-0.2543,-0.2559,-0.2582,-0.2605,-0.263,-0.2629,-0.2612,-0.261,-0.262,-0.2637,-0.2557,-0.2549,-0.2542,-0.2528,-0.252,-0.2625,-0.2626,-0.2626,-0.2627,0,-0.2625,-0.2675,-0.264,-0.2624,-0.2606,-0.2635,-0.2617,-0.2625,-0.2649,-0.2608,-0.2688,-0.2687,-0.268,-0.2715,-0.2735,-0.2637,-0.27,-0.2646,-0.2576,-0.2572,-0.2562,-0.2553,-0.2537,-0.2528,-0.2631,-0.2631,-0.2631,0,-0.2748,-0.2763,-0.2765,-0.2763,-0.2763,-0.273,-0.2802,-0.2756,-0.2739,-0.282,-0.279,-0.2823,-0.2865,-0.2833,-0.282,-0.2845,-0.2763,-0.2789,-0.2779,-0.2789,-0.2789,-0.2777,-0.2766,-0.2913,-0.2914,-0.2914,0,0,-0.2796,-0.2796,-0.2822,-0.2781,-0.278,-0.2803,-0.278,-0.2808,-0.2814,-0.2824,-0.2847,-0.2875,-0.289,-0.2884,-0.2894,-0.2837,-0.2861,-0.2821,-0.2807,-0.2796,-0.2799,-0.2797,-0.2784,-0.2917,-0.2917,-0.2917,0,0,-0.2812,-0.2862,-0.2905,-0.2876,-0.2857,-0.2865,-0.2821,-0.2855,-0.2861,-0.2882,-0.2944,-0.2951,-0.2922,-0.294,-0.2968,-0.292,-0.2978,-0.2972,-0.2903,-0.2887,-0.2874,-0.2882,-0.3062,0,0,0,0,0,-0.2896,-0.2854,-0.2893,-0.2891,-0.2903,-0.2849,-0.2846,-0.2879,-0.2931,-0.2902,-0.294,-0.2995,-0.2978,-0.3004,-0.3001,-0.2972,-0.2951,-0.2945,-0.2939,-0.2838,-0.2821,-0.2807,0,0,0,0,0,0,-0.2895,-0.2899,-0.2892,-0.2904,-0.2904,-0.2854,-0.2947,-0.2956,-0.2936,-0.2947,-0.2987,-0.2996,-0.3044,-0.3008,-0.3006,-0.2977,-0.3063,-0.2948,-0.2943,-0.2939,-0.2833,-0.2818,-0.2806,0,0,0,0,0,-0.2895,-0.2897,-0.2923,-0.2904,-0.2904,-0.2923,-0.2952,-0.296,-0.2961,-0.2992,-0.3003,-0.2983,-0.3041,-0.3043,-0.3007,-0.2977,-0.3066,-0.3064,-0.2945,-0.2941,-0.2937,-0.2826,0,0,0,0,0,0,-0.2894,-0.2914,-0.2922,-0.292,-0.2932,-0.2927,-0.2936,-0.2963,-0.301,-0.3017,-0.2991,-0.3,-0.3038,-0.304,-0.3041,-0.2975,-0.3067,-0.3066,-0.3065,-0.2942,-0.2939,-0.2936,0,0,0,0,0,0,-0.2911,-0.2914,-0.2922,-0.2957,-0.296,-0.2929,-0.2937,-0.2913,-0.3011,-0.3011,-0.3017,-0.2994,-0.3034,-0.3038,-0.3039,-0.2999,-0.3069,-0.3068,-0.3067,-0.3066,-0.2939,-0.2937,0,0,0,0,0,0,-0.2911,-0.2913,-0.2959,-0.2961,-0.2964,-0.2952,-0.2909,-0.2929,-0.3016,-0.3011,-0.3025,-0.3029,-0.303,-0.3033,-0.3037,-0.2996,-0.2998,-0.3069,-0.3068,-0.3067,-0.3067,0,0,0,0,0,0,0,-0.2911,-0.2907,-0.2919,-0.2965,-0.2968,-0.2895,-0.2896,-0.2897,-0.3017,-0.302,-0.3024,-0.3027,-0.3075,-0.3074,-0.3073,-0.2993,0,0,-0.3069,-0.3068,0,0,0,0,0,0,0,0,-0.2905,-0.2907,-0.2919,-0.2918,-0.2916,-0.2895,-0.2896,-0.2897,-0.3017,-0.302,-0.3023,-0.3026,-0.3075,-0.3074,-0.3073,0,0,0,0,0,0,0,0,0,0,0,0,0,0,0,-0.2919,-0.2918,0,-0.2895,-0.2896,-0.2897,-0.3018,-0.302,-0.3022,-0.3025,-0.3075,-0.3074,-0.3073,0,0,0,0,0,0,0,0,0,0,0,0,0,0,0,0,0,0,0,0,0,0,0,0,0,0,0,0,0,0,0,0,0,0,0,0,0,0,0,0,0,0,0,0,0,0,0,0,0,0,0,0,0,0,0,0,0,0,0,0,0,0,0,0,0,0,0,0,0]}]],[[{"header":{"parameterUnit":"kt","parameterCategory":2,"dx":1,"dy":1,"la1":30.253999710083008,"la2":30.299108505249023,"lo1":-89.0895004272461,"lo2":-89.04439544677734,"nx":28,"ny":28,"refTime":"2022-10-19T09:00:00:Z","depth":"2","parameterNumber":2,"parameterNumberName":"U-component_of_CURRENTS"},"data":[-0.04,-0.0322,-0.0196,-0.0151,-0.0083,-0.008,-0.0111,-0.0154,-0.0068,-0.0029,0.016,0.0212,0.0462,0.0624,0.069,0.0865,0.0924,0.0803,0.1075,0.0862,0.0887,0.0998,0.0774,0,0,0,0,0,-0.0323,-0.023,-0.0068,-0.005,0.0027,0.0173,0.0199,0.0169,0.0139,0.0351,0.0388,0.0401,0.0437,0.0832,0.0973,0.0999,0.0848,0.1175,0.1004,0.1023,0.1044,0.0896,0.0831,0.0834,0.0836,0.0838,0,0,-0.0307,-0.0235,-0.0125,0.0044,0.0144,0.0176,0.0246,0.0366,0.0436,0.0563,0.0662,0.0728,0.0891,0.1016,0.1164,0.1391,0.1323,0.1353,0.1355,0.1364,0.1235,0.1209,0.1256,0.1259,0.1263,0.1265,0.1268,0,-0.0324,-0.025,-0.0155,0.0017,0.0136,0.0298,0.0533,0.0558,0.0837,0.0929,0.1021,0.104,0.1249,0.1264,0.1497,0.1431,0.168,0.163,0.1995,0.1129,0.1101,0.1005,0.0995,0.1145,0.1148,0.1151,0.1152,0.1154,-0.0451,-0.0325,-0.0104,-0.0055,0.0099,0.038,0.0547,0.0823,0.0916,0.1213,0.122,0.1517,0.1504,0.1729,0.1743,0.1815,0.1941,0.1701,0.143,0.1695,0.1605,0.1575,0.1546,0.1187,0.1183,0.1179,0.1177,0,-0.0494,-0.0406,-0.0201,0.007,0.0169,0.0351,0.0699,0.0838,0.106,0.1222,0.1304,0.1498,0.1678,0.181,0.1869,0.1801,0.182,0.1801,0.1535,0.1442,0.1552,0.1525,0.1836,0.1838,0.1839,0.1841,0.1842,0,-0.0524,-0.0371,-0.0148,-0.0051,0.0173,0.0398,0.0654,0.0832,0.1049,0.1174,0.1348,0.1417,0.1534,0.1641,0.1601,0.1645,0.1691,0.1481,0.1422,0.1141,0.1112,0.1157,0.1119,0.1469,0.1466,0.1464,0.1463,0,-0.0587,-0.0307,-0.0142,-0.0052,0.0236,0.0386,0.0573,0.08,0.0924,0.1159,0.1218,0.1392,0.1452,0.1484,0.1465,0.136,0.1552,0.135,0.1332,0.133,0.104,0.1004,0.146,0.146,0.146,0.1459,0.1458,0,-0.054,-0.0407,-0.0185,0.0073,0.0134,0.0301,0.0541,0.0721,0.0922,0.0985,0.1117,0.1118,0.1265,0.1127,0.1244,0.1163,0.1131,0.1069,0.1073,0.0973,0.0767,0.074,0.0952,0.105,0.1046,0.1042,0.1039,0,-0.0665,-0.0435,-0.0313,-0.0077,0.0036,0.0163,0.0339,0.0504,0.0602,0.074,0.0775,0.0858,0.0799,0.0817,0.0874,0.0789,0.0891,0.0755,0.0731,0.0733,0.0731,0.0988,0.0696,0.0901,0.0992,0.0997,0.1,0,-0.0774,-0.0526,-0.05,-0.0398,-0.02,-0.0114,0.0097,0.0256,0.0363,0.0485,0.0613,0.0671,0.0647,0.0636,0.056,0.0601,0.0806,0.0488,0.0482,0.0635,0.0946,0.0923,0.0953,0.0693,0.0699,0.0703,0.0963,0,-0.0781,-0.0662,-0.0591,-0.0426,-0.0328,-0.0207,-0.0109,0.001,0.0063,0.0115,0.0244,0.0217,0.0253,0.0238,0.0182,0.0326,0.0293,0.0151,0.0079,0.0234,0.0319,0.035,-0.0096,-0.0101,-0.0106,-0.011,0,0,-0.0951,-0.0817,-0.0775,-0.0652,-0.0577,-0.0546,-0.042,-0.034,-0.0235,-0.0179,-0.0207,-0.0137,-0.0166,-0.0067,-0.0013,-0.0065,-0.0044,-0.0027,0.0125,0.0152,0.0176,0.0269,0.0303,-0.0118,-0.0119,-0.0121,-0.0122,0,-0.0972,-0.0928,-0.0821,-0.0747,-0.0641,-0.0606,-0.0561,-0.0484,-0.0429,-0.0297,-0.0369,-0.0326,-0.0278,-0.0279,-0.0285,-0.0133,-0.0172,-0.0157,0.0058,0.0084,0.0117,0.0146,0.0244,0.0279,-0.0133,-0.0133,-0.0132,0,-0.1073,-0.1015,-0.0967,-0.0864,-0.0823,-0.0718,-0.0786,-0.0675,-0.0568,-0.0671,-0.0521,-0.0553,-0.0597,-0.0494,-0.0455,-0.0506,-0.0285,-0.0389,-0.0369,-0.0321,-0.0299,-0.0262,-0.0229,-0.064,-0.064,-0.0641,0,0,-0.1096,-0.1005,-0.0959,-0.0876,-0.0845,-0.0813,-0.0769,-0.0735,-0.0696,-0.067,-0.0651,-0.0652,-0.0634,-0.0597,-0.0591,-0.0491,-0.0501,-0.0438,-0.0415,-0.0394,-0.0334,-0.0307,-0.0273,-0.0642,-0.0642,-0.0643,0,0,-0.1121,-0.1046,-0.1044,-0.0955,-0.0889,-0.0857,-0.0793,-0.0787,-0.0729,-0.0717,-0.0757,-0.0751,-0.065,-0.0697,-0.0716,-0.0594,-0.0713,-0.0707,-0.0502,-0.0473,-0.0451,-0.0373,-0.0789,0,0,0,0,0,-0.1129,-0.1056,-0.1054,-0.1037,-0.0952,-0.0861,-0.0848,-0.0824,-0.0847,-0.0779,-0.0775,-0.0811,-0.0726,-0.0743,-0.0735,-0.0628,-0.0665,-0.0661,-0.0657,-0.0374,-0.0344,-0.0318,0,0,0,0,0,0,-0.1123,-0.1103,-0.1056,-0.1026,-0.1006,-0.0866,-0.0929,-0.0921,-0.0852,-0.085,-0.0814,-0.0812,-0.0836,-0.0749,-0.0741,-0.0638,-0.0792,-0.0663,-0.066,-0.0657,-0.0364,-0.0339,-0.0318,0,0,0,0,0,-0.1117,-0.1101,-0.0968,-0.1027,-0.101,-0.0964,-0.093,-0.0923,-0.086,-0.0868,-0.0863,-0.0837,-0.0835,-0.0827,-0.0745,-0.064,-0.0798,-0.0794,-0.0661,-0.0658,-0.0656,-0.0352,0,0,0,0,0,0,-0.1113,-0.1099,-0.0964,-0.0958,-0.1039,-0.0969,-0.0957,-0.0926,-0.0881,-0.0874,-0.0898,-0.0899,-0.0835,-0.0829,-0.0822,-0.0637,-0.0802,-0.0799,-0.0797,-0.0659,-0.0657,-0.0655,0,0,0,0,0,0,-0.1107,-0.1094,-0.0961,-0.0978,-0.0974,-0.0973,-0.0962,-0.0926,-0.0881,-0.0914,-0.0913,-0.0899,-0.0849,-0.0829,-0.0825,-0.0769,-0.0806,-0.0803,-0.0801,-0.0799,-0.0657,-0.0656,0,0,0,0,0,0,-0.1101,-0.109,-0.0979,-0.0976,-0.0972,-0.0904,-0.0942,-0.0859,-0.0882,-0.0917,-0.0884,-0.0885,-0.0851,-0.0845,-0.0826,-0.0772,-0.077,-0.0806,-0.0804,-0.0802,-0.0801,0,0,0,0,0,0,0,-0.1096,-0.1177,-0.0998,-0.0975,-0.0971,-0.0902,-0.09,-0.0899,-0.0882,-0.0883,-0.0884,-0.0885,-0.0823,-0.082,-0.0817,-0.0775,0,0,-0.0806,-0.0805,0,0,0,0,0,0,0,0,-0.1181,-0.1178,-0.0998,-0.0997,-0.0995,-0.0901,-0.09,-0.0899,-0.0882,-0.0883,-0.0884,-0.0884,-0.0823,-0.082,-0.0817,0,0,0,0,0,0,0,0,0,0,0,0,0,0,0,-0.0998,-0.0997,0,-0.0901,-0.09,-0.0899,-0.0882,-0.0883,-0.0884,-0.0884,-0.0822,-0.082,-0.0817,0,0,0,0,0,0,0,0,0,0,0,0,0,0,0,0,0,0,0,0,0,0,0,0,0,0,0,0,0,0,0,0,0,0,0,0,0,0,0,0,0,0,0,0,0,0,0,0,0,0,0,0,0,0,0,0,0,0,0,0,0,0,0,0,0,0,0,0,0]}],[{"header":{"parameterUnit":"kt","parameterCategory":2,"dx":1,"dy":1,"la1":30.253999710083008,"la2":30.299108505249023,"lo1":-89.0895004272461,"lo2":-89.04439544677734,"nx":28,"ny":28,"refTime":"2022-10-19T09:00:00:Z","depth":"2","parameterNumber":3,"parameterNumberName":"V-component_of_CURRENTS"},"data":[0.2479,0.2497,0.248,0.2859,0.3072,0.3271,0.336,0.3148,0.2871,0.2233,0.1798,0.0898,0.0686,0.0231,-0.0034,-0.0016,0.0026,-0.0007,0.0285,0.0209,0.0221,-0.0017,0.0067,0,0,0,0,0,0.2444,0.2401,0.2487,0.2834,0.3096,0.3199,0.3383,0.329,0.3135,0.2724,0.2283,0.1394,0.077,0.0471,0.0202,-0.0014,-0.006,-0.0028,-0.0134,-0.0123,-0.0114,-0.0069,-0.0215,-0.0216,-0.0217,-0.0218,0,0,0.2515,0.2472,0.2543,0.2734,0.3,0.3264,0.3343,0.3341,0.3264,0.282,0.266,0.2159,0.163,0.0743,0.0431,0.0288,0.0336,0.0143,0.0142,0.0143,0.0204,0.0309,0.0131,0.0132,0.0133,0.0134,0.0135,0,0.2574,0.2553,0.2623,0.2801,0.3001,0.32,0.3303,0.3268,0.3157,0.3,0.2797,0.2579,0.2044,0.1453,0.0876,0.0586,0.0349,0.0255,0.039,0.013,0.0232,0.0194,0.0214,0.0026,0.0027,0.0027,0.0028,0.0028,0.2717,0.2677,0.2786,0.292,0.2937,0.3042,0.3136,0.3082,0.3022,0.2784,0.2717,0.2439,0.2142,0.1538,0.1072,0.0573,0.0546,0.0276,0.0242,0.0472,0.0431,0.0447,0.0462,0.0038,0.0037,0.0036,0.0035,0,0.2703,0.277,0.2793,0.2821,0.2882,0.2921,0.2963,0.296,0.2809,0.2674,0.2633,0.2312,0.1988,0.1573,0.1088,0.0853,0.0496,0.0402,0.0387,0.0333,0.0444,0.0462,0.0295,0.0297,0.0298,0.0299,0.03,0,0.2703,0.2725,0.2732,0.2747,0.2827,0.2767,0.2801,0.2708,0.2562,0.2469,0.2234,0.2107,0.1688,0.1414,0.1094,0.0758,0.0683,0.0521,0.0463,0.0378,0.0383,0.048,0.0497,0.0343,0.0344,0.0345,0.0346,0,0.26,0.2606,0.2649,0.263,0.2579,0.2598,0.2598,0.2432,0.2373,0.2183,0.21,0.1818,0.1707,0.1396,0.1058,0.1046,0.0656,0.0594,0.0506,0.0512,0.0387,0.039,0.0348,0.0348,0.0348,0.0349,0.0349,0,0.2471,0.2473,0.2503,0.2504,0.2496,0.2491,0.2408,0.2363,0.2166,0.2057,0.188,0.1738,0.1516,0.1431,0.1049,0.1122,0.0932,0.0762,0.075,0.0848,0.0811,0.0612,0.0457,0.0631,0.0634,0.0637,0.0639,0,0.2397,0.2411,0.2343,0.2369,0.2368,0.2254,0.2211,0.2109,0.1986,0.1894,0.1697,0.1595,0.1471,0.1415,0.1241,0.1028,0.0899,0.1005,0.076,0.0755,0.0873,0.0753,0.0645,0.0499,0.067,0.0667,0.0665,0,0.2322,0.2255,0.226,0.2262,0.2147,0.2145,0.2067,0.1986,0.1943,0.1811,0.175,0.1534,0.1457,0.1386,0.1259,0.1117,0.0952,0.1066,0.1059,0.1038,0.0694,0.0787,0.0774,0.0858,0.0855,0.0852,0.069,0,0.2211,0.2198,0.2204,0.2135,0.2102,0.2095,0.1987,0.1943,0.1878,0.1802,0.1666,0.1524,0.1419,0.1331,0.127,0.1119,0.1119,0.1072,0.1113,0.1022,0.0963,0.0944,0.1187,0.1188,0.1189,0.1189,0,0,0.2157,0.2141,0.2065,0.2047,0.2029,0.1936,0.1937,0.1876,0.1797,0.1759,0.1733,0.1532,0.1452,0.1308,0.1258,0.1211,0.1158,0.1272,0.1066,0.1053,0.104,0.098,0.0961,0.119,0.119,0.119,0.1191,0,0.2113,0.2051,0.2057,0.2014,0.1962,0.1921,0.191,0.185,0.1813,0.1746,0.1662,0.1551,0.1473,0.1378,0.1322,0.1227,0.1215,0.1197,0.1214,0.1074,0.106,0.1048,0.0986,0.0968,0.1192,0.1192,0.1192,0,0.2038,0.1995,0.1987,0.1925,0.1901,0.1876,0.1837,0.1823,0.1794,0.1732,0.1682,0.1599,0.1511,0.1426,0.1388,0.1406,0.1262,0.1322,0.1317,0.137,0.123,0.1213,0.1198,0.1395,0.1396,0.1397,0,0,0.2001,0.1983,0.1912,0.191,0.1888,0.1843,0.1834,0.1806,0.1756,0.1735,0.1691,0.1621,0.1538,0.1505,0.1451,0.139,0.1361,0.135,0.134,0.1333,0.138,0.124,0.1223,0.1401,0.1401,0.1401,0,0,0.1996,0.1922,0.1886,0.187,0.1837,0.1802,0.1813,0.1779,0.1729,0.1718,0.1671,0.1657,0.1574,0.1556,0.1605,0.1465,0.1499,0.1489,0.1493,0.1481,0.1471,0.1544,0.1624,0,0,0,0,0,0.1921,0.1927,0.1894,0.1884,0.1829,0.1809,0.1805,0.178,0.176,0.1761,0.1691,0.1705,0.1554,0.1598,0.159,0.1552,0.1448,0.144,0.1432,0.1421,0.1408,0.1397,0,0,0,0,0,0,0.1917,0.1903,0.1895,0.1856,0.1844,0.1809,0.1784,0.1778,0.176,0.1756,0.1713,0.1704,0.1682,0.1602,0.1596,0.1559,0.1627,0.1445,0.1438,0.1432,0.1417,0.1406,0.1397,0,0,0,0,0,0.1913,0.1902,0.1814,0.1857,0.1847,0.1813,0.1784,0.1778,0.1763,0.1725,0.1717,0.1743,0.1683,0.1674,0.1598,0.1562,0.1632,0.1629,0.144,0.1435,0.143,0.1412,0,0,0,0,0,0,0.1911,0.1905,0.1812,0.1809,0.1851,0.1815,0.1806,0.1779,0.1732,0.1724,0.1754,0.1752,0.1684,0.1677,0.167,0.1562,0.1636,0.1633,0.1631,0.1436,0.1432,0.1428,0,0,0,0,0,0,0.1911,0.1903,0.1811,0.1805,0.1801,0.1817,0.1809,0.1784,0.1731,0.1763,0.176,0.1754,0.1684,0.1679,0.1673,0.1637,0.1639,0.1636,0.1634,0.1633,0.1433,0.1429,0,0,0,0,0,0,0.1908,0.19,0.1805,0.1802,0.1799,0.1767,0.1795,0.1734,0.1744,0.1765,0.1742,0.1741,0.1686,0.168,0.1676,0.1642,0.1638,0.1638,0.1637,0.1636,0.1635,0,0,0,0,0,0,0,0.1905,0.1952,0.1827,0.1801,0.1798,0.1783,0.1782,0.1782,0.1743,0.1743,0.1742,0.1741,0.1653,0.165,0.1647,0.1646,0,0,0.1639,0.1637,0,0,0,0,0,0,0,0,0.1955,0.1953,0.1827,0.1827,0.1826,0.1783,0.1782,0.1782,0.1743,0.1743,0.1742,0.1741,0.1652,0.165,0.1648,0,0,0,0,0,0,0,0,0,0,0,0,0,0,0,0.1827,0.1827,0,0.1783,0.1782,0.1782,0.1743,0.1743,0.1742,0.1742,0.1652,0.165,0.1648,0,0,0,0,0,0,0,0,0,0,0,0,0,0,0,0,0,0,0,0,0,0,0,0,0,0,0,0,0,0,0,0,0,0,0,0,0,0,0,0,0,0,0,0,0,0,0,0,0,0,0,0,0,0,0,0,0,0,0,0,0,0,0,0,0,0,0,0,0]}]],[[{"header":{"parameterUnit":"kt","parameterCategory":2,"dx":1,"dy":1,"la1":30.253999710083008,"la2":30.299108505249023,"lo1":-89.0895004272461,"lo2":-89.04439544677734,"nx":28,"ny":28,"refTime":"2022-10-19T09:00:00:Z","depth":"4","parameterNumber":2,"parameterNumberName":"U-component_of_CURRENTS"},"data":[-0.062,-0.059,-0.0559,-0.0432,-0.0363,-0.03,-0.0282,-0.0322,-0.0303,-0.0399,-0.0418,-0.0507,-0.0538,-0.0604,-0.0559,-0.0566,-0.0675,-0.0656,-0.0652,-0.0912,-0.0935,-0.0956,-0.0886,0,0,0,0,0,-0.0655,-0.0607,-0.0582,-0.0512,-0.0479,-0.0463,-0.0463,-0.0491,-0.0554,-0.051,-0.0568,-0.0572,-0.0575,-0.0625,-0.0571,-0.0669,-0.0796,-0.0599,-0.0814,-0.0926,-0.0952,-0.0875,0,0,0,0,0,0,-0.0687,-0.0655,-0.0632,-0.0616,-0.0595,-0.0522,-0.0552,-0.0543,-0.056,-0.0646,-0.0637,-0.0711,-0.0812,-0.0786,-0.0811,-0.0806,-0.0808,-0.0813,-0.0843,-0.0869,-0.0786,-0.0678,-0.0488,0,0,0,0,0,-0.0709,-0.0707,-0.0692,-0.0671,-0.0676,-0.066,-0.0684,-0.0669,-0.0733,-0.0825,-0.0811,-0.0823,-0.0838,-0.0897,-0.0914,-0.0959,-0.1159,-0.1095,-0.111,-0.1141,-0.1084,-0.1088,-0.11,-0.105,-0.1053,-0.1055,-0.1057,0,-0.0744,-0.0728,-0.073,-0.0722,-0.074,-0.0768,-0.0786,-0.086,-0.0862,-0.0938,-0.0926,-0.0985,-0.1027,-0.1019,-0.1125,-0.1162,-0.1166,-0.1162,-0.1194,-0.1125,-0.1122,-0.1128,-0.1133,-0.1077,-0.1076,-0.1074,-0.1072,0,-0.0761,-0.0768,-0.0756,-0.0784,-0.08,-0.0812,-0.088,-0.0892,-0.0966,-0.0987,-0.1008,-0.1101,-0.1139,-0.1233,-0.1347,-0.1322,-0.1344,-0.1307,-0.1484,-0.1487,-0.1172,-0.1169,-0.1111,-0.1104,-0.1097,-0.1092,-0.1088,0,-0.0797,-0.0797,-0.0808,-0.0812,-0.0822,-0.0877,-0.0908,-0.0954,-0.1015,-0.1026,-0.1114,-0.1135,-0.1281,-0.1334,-0.1399,-0.1371,-0.1489,-0.1354,-0.1343,-0.1553,-0.1549,-0.1562,-0.1558,-0.1597,-0.1597,-0.1597,-0.1597,0,-0.0821,-0.0838,-0.0829,-0.0848,-0.0889,-0.0914,-0.0948,-0.1008,-0.1032,-0.11,-0.1127,-0.1206,-0.1263,-0.1336,-0.1412,-0.143,-0.151,-0.1542,-0.1376,-0.1361,-0.1561,-0.1557,-0.1597,-0.1597,-0.1597,-0.1597,-0.1597,0,-0.0867,-0.086,-0.0861,-0.0893,-0.0901,-0.0933,-0.098,-0.1016,-0.1076,-0.111,-0.1162,-0.1209,-0.1282,-0.1316,-0.1416,-0.1406,-0.1446,-0.1492,-0.1494,-0.1303,-0.1285,-0.1448,-0.1487,-0.1487,-0.1486,-0.1485,-0.1485,0,-0.0879,-0.0875,-0.0905,-0.0923,-0.092,-0.0973,-0.1007,-0.1045,-0.1082,-0.1124,-0.1182,-0.1236,-0.1269,-0.1308,-0.1357,-0.1428,-0.1452,-0.1432,-0.1488,-0.1488,-0.1283,-0.1272,-0.148,-0.1476,-0.1477,-0.1478,-0.1478,0,-0.0892,-0.0911,-0.0919,-0.0921,-0.0969,-0.0977,-0.1018,-0.1039,-0.106,-0.1127,-0.1157,-0.1244,-0.1273,-0.1304,-0.1346,-0.1393,-0.1435,-0.1418,-0.142,-0.1397,-0.15,-0.1288,-0.1272,-0.1472,-0.1474,-0.1475,-0.1472,0,-0.0912,-0.0922,-0.0925,-0.0943,-0.0961,-0.0978,-0.1009,-0.104,-0.1074,-0.1096,-0.1162,-0.1227,-0.1281,-0.1312,-0.1338,-0.1393,-0.1387,-0.1407,-0.1394,-0.1425,-0.1418,-0.1423,-0.1368,-0.1368,-0.1369,-0.1369,0,0,-0.0918,-0.092,-0.0933,-0.0942,-0.0955,-0.0977,-0.0985,-0.1011,-0.1062,-0.1077,-0.1101,-0.1208,-0.1252,-0.1302,-0.1324,-0.1348,-0.1362,-0.1347,-0.1412,-0.1416,-0.1421,-0.1416,-0.142,-0.1369,-0.1369,-0.1369,-0.1369,0,-0.0918,-0.0935,-0.0932,-0.0949,-0.0962,-0.0973,-0.0979,-0.1008,-0.1027,-0.1082,-0.1112,-0.1164,-0.124,-0.1271,-0.1296,-0.1344,-0.1356,-0.1368,-0.1369,-0.1411,-0.1415,-0.1419,-0.1415,-0.1419,-0.1369,-0.1369,-0.1369,0,-0.0924,-0.0928,-0.0935,-0.0945,-0.0953,-0.0964,-0.0968,-0.0986,-0.1006,-0.1041,-0.1093,-0.1136,-0.1183,-0.1239,-0.1269,-0.1264,-0.1342,-0.1328,-0.1329,-0.1326,-0.1368,-0.1373,-0.1378,-0.1313,-0.1312,-0.1312,0,0,-0.0921,-0.093,-0.0938,-0.0945,-0.0947,-0.0963,-0.097,-0.0984,-0.1014,-0.1031,-0.1072,-0.1122,-0.1166,-0.1195,-0.124,-0.1292,-0.13,-0.1319,-0.1322,-0.1324,-0.1321,-0.1364,-0.1369,-0.131,-0.131,-0.131,0,0,-0.0921,-0.0932,-0.0937,-0.0944,-0.0952,-0.0966,-0.0971,-0.0984,-0.1022,-0.1036,-0.107,-0.1083,-0.1143,-0.1168,-0.1144,-0.1238,-0.123,-0.1236,-0.1214,-0.1218,-0.1221,-0.1205,-0.1151,0,0,0,0,0,-0.0925,-0.0929,-0.0933,-0.0935,-0.0954,-0.0963,-0.0967,-0.0978,-0.0988,-0.0995,-0.1039,-0.105,-0.1164,-0.1143,-0.1156,-0.1181,-0.1291,-0.1294,-0.1297,-0.1283,-0.1287,-0.129,0,0,0,0,0,0,-0.0926,-0.0929,-0.0933,-0.0945,-0.0949,-0.0963,-0.0969,-0.0973,-0.0988,-0.0989,-0.1042,-0.1051,-0.1074,-0.1138,-0.1149,-0.1173,-0.1147,-0.1292,-0.1295,-0.1298,-0.1284,-0.1287,-0.129,0,0,0,0,0,-0.0927,-0.0929,-0.0955,-0.0946,-0.0949,-0.0963,-0.097,-0.0973,-0.0991,-0.1026,-0.1035,-0.0998,-0.1073,-0.1086,-0.1145,-0.1167,-0.114,-0.1144,-0.1294,-0.1296,-0.1298,-0.1286,0,0,0,0,0,0,-0.0927,-0.0938,-0.0956,-0.0958,-0.0943,-0.0963,-0.0966,-0.0972,-0.1028,-0.1035,-0.0983,-0.0984,-0.1073,-0.1083,-0.1093,-0.1164,-0.1133,-0.1138,-0.114,-0.1296,-0.1298,-0.1299,0,0,0,0,0,0,-0.0937,-0.094,-0.0957,-0.0954,-0.0955,-0.0962,-0.0966,-0.1009,-0.103,-0.0984,-0.0985,-0.0983,-0.1071,-0.1081,-0.1088,-0.1156,-0.1128,-0.1133,-0.1135,-0.1137,-0.1297,-0.1299,0,0,0,0,0,0,-0.0938,-0.0941,-0.0954,-0.0955,-0.0956,-0.0976,-0.1004,-0.1033,-0.0994,-0.0983,-0.0994,-0.0994,-0.107,-0.1077,-0.1085,-0.1149,-0.1154,-0.1129,-0.1131,-0.1133,-0.1135,0,0,0,0,0,0,0,-0.0939,-0.092,-0.0943,-0.0956,-0.0957,-0.097,-0.0971,-0.0972,-0.0994,-0.0994,-0.0994,-0.0994,-0.1105,-0.111,-0.1114,-0.1144,0,0,-0.1128,-0.113,0,0,0,0,0,0,0,0,-0.0919,-0.092,-0.0943,-0.0943,-0.0943,-0.097,-0.0971,-0.0972,-0.0994,-0.0994,-0.0994,-0.0994,-0.1106,-0.111,-0.1114,0,0,0,0,0,0,0,0,0,0,0,0,0,0,0,-0.0943,-0.0943,0,-0.097,-0.0971,-0.0972,-0.0994,-0.0994,-0.0994,-0.0994,-0.1107,-0.111,-0.1113,0,0,0,0,0,0,0,0,0,0,0,0,0,0,0,0,0,0,0,0,0,0,0,0,0,0,0,0,0,0,0,0,0,0,0,0,0,0,0,0,0,0,0,0,0,0,0,0,0,0,0,0,0,0,0,0,0,0,0,0,0,0,0,0,0,0,0,0,0]}],[{"header":{"parameterUnit":"kt","parameterCategory":2,"dx":1,"dy":1,"la1":30.253999710083008,"la2":30.299108505249023,"lo1":-89.0895004272461,"lo2":-89.04439544677734,"nx":28,"ny":28,"refTime":"2022-10-19T09:00:00:Z","depth":"4","parameterNumber":3,"parameterNumberName":"V-component_of_CURRENTS"},"data":[-0.0703,-0.075,-0.075,-0.0804,-0.0837,-0.0935,-0.1001,-0.1051,-0.1009,-0.103,-0.094,-0.0937,-0.0797,-0.0885,-0.0689,-0.0675,-0.0673,-0.0601,-0.0599,-0.0621,-0.0626,-0.0632,-0.0665,0,0,0,0,0,-0.0685,-0.0709,-0.0761,-0.0826,-0.0901,-0.0941,-0.1053,-0.1095,-0.114,-0.1092,-0.109,-0.1002,-0.0878,-0.0847,-0.0724,-0.0792,-0.0685,-0.0653,-0.0674,-0.0624,-0.0631,-0.0661,0,0,0,0,0,0,-0.0675,-0.0705,-0.0759,-0.081,-0.0896,-0.0977,-0.1029,-0.1059,-0.1092,-0.1124,-0.1112,-0.1051,-0.1025,-0.0888,-0.0794,-0.0691,-0.0671,-0.0653,-0.0658,-0.0664,-0.069,-0.0694,-0.0606,0,0,0,0,0,-0.0661,-0.0688,-0.074,-0.081,-0.0881,-0.0963,-0.104,-0.1069,-0.1131,-0.1165,-0.1136,-0.1084,-0.1014,-0.0913,-0.0803,-0.071,-0.0739,-0.0689,-0.0692,-0.0711,-0.0713,-0.0695,-0.0702,-0.0656,-0.0656,-0.0657,-0.0657,0,-0.064,-0.0674,-0.0761,-0.0803,-0.0849,-0.0923,-0.0984,-0.1049,-0.1087,-0.1146,-0.1163,-0.1137,-0.1123,-0.0951,-0.0904,-0.0758,-0.074,-0.0706,-0.0727,-0.0725,-0.0704,-0.0709,-0.0714,-0.0663,-0.0662,-0.0662,-0.0661,0,-0.0628,-0.067,-0.0738,-0.0818,-0.0851,-0.0896,-0.0992,-0.1039,-0.1077,-0.113,-0.1141,-0.1159,-0.1094,-0.1031,-0.0946,-0.0897,-0.081,-0.0769,-0.0843,-0.0821,-0.0721,-0.0724,-0.0671,-0.0669,-0.0668,-0.0666,-0.0665,0,-0.062,-0.0673,-0.0738,-0.0774,-0.0842,-0.0891,-0.096,-0.0997,-0.105,-0.1094,-0.11,-0.1122,-0.1083,-0.1046,-0.0979,-0.0889,-0.0908,-0.0825,-0.0798,-0.0871,-0.0873,-0.0832,-0.0829,-0.086,-0.0861,-0.0861,-0.0862,0,-0.0591,-0.0678,-0.0732,-0.076,-0.0839,-0.0879,-0.0918,-0.0972,-0.1011,-0.1048,-0.1077,-0.1075,-0.1086,-0.103,-0.0978,-0.0977,-0.0912,-0.0903,-0.0819,-0.0815,-0.0834,-0.083,-0.0862,-0.0863,-0.0863,-0.0863,-0.0863,0,-0.0591,-0.0638,-0.0706,-0.0786,-0.0804,-0.0846,-0.0909,-0.0948,-0.0993,-0.1019,-0.1043,-0.1048,-0.1055,-0.1037,-0.0993,-0.1,-0.0953,-0.0925,-0.0921,-0.0849,-0.0812,-0.0795,-0.0855,-0.0856,-0.0856,-0.0857,-0.0857,0,-0.055,-0.0625,-0.066,-0.0731,-0.077,-0.08,-0.0842,-0.0884,-0.0917,-0.0955,-0.0974,-0.101,-0.0999,-0.1009,-0.0999,-0.0973,-0.0952,-0.0975,-0.086,-0.0857,-0.0802,-0.0846,-0.0934,-0.0862,-0.0861,-0.0861,-0.0861,0,-0.0518,-0.0598,-0.061,-0.0639,-0.0694,-0.0726,-0.0775,-0.0819,-0.0846,-0.0891,-0.0924,-0.0977,-0.0973,-0.0975,-0.0965,-0.0952,-0.0956,-0.091,-0.0907,-0.0865,-0.0896,-0.0856,-0.0849,-0.0934,-0.0934,-0.0934,-0.0864,0,-0.0498,-0.0548,-0.0579,-0.0625,-0.0655,-0.0699,-0.0722,-0.0758,-0.0777,-0.0792,-0.0851,-0.0868,-0.0886,-0.0905,-0.0892,-0.0917,-0.0879,-0.0864,-0.0798,-0.0854,-0.0816,-0.0814,-0.0819,-0.0817,-0.0816,-0.0815,0,0,-0.0442,-0.05,-0.0525,-0.0564,-0.0585,-0.0592,-0.0628,-0.0651,-0.069,-0.0708,-0.0704,-0.0763,-0.0772,-0.0802,-0.0826,-0.0839,-0.0804,-0.0795,-0.0837,-0.084,-0.0843,-0.0809,-0.0809,-0.0813,-0.0812,-0.0812,-0.0811,0,-0.0432,-0.0469,-0.0508,-0.0533,-0.0565,-0.0571,-0.0588,-0.0615,-0.0625,-0.0681,-0.066,-0.0695,-0.073,-0.0727,-0.0729,-0.0816,-0.0751,-0.0821,-0.0844,-0.0827,-0.0832,-0.0836,-0.0804,-0.0805,-0.0808,-0.0808,-0.0809,0,-0.0388,-0.0416,-0.0438,-0.0489,-0.05,-0.0529,-0.0504,-0.0543,-0.0566,-0.0536,-0.058,-0.0594,-0.0592,-0.0638,-0.0658,-0.0623,-0.0682,-0.0684,-0.0691,-0.0679,-0.0658,-0.0664,-0.067,-0.059,-0.059,-0.0589,0,0,-0.0373,-0.0418,-0.0437,-0.0484,-0.0495,-0.05,-0.0514,-0.0512,-0.0528,-0.0535,-0.0537,-0.0543,-0.0566,-0.057,-0.0594,-0.0638,-0.0601,-0.0658,-0.0669,-0.0677,-0.0671,-0.0652,-0.0659,-0.0587,-0.0587,-0.0587,0,0,-0.0357,-0.0393,-0.0387,-0.0443,-0.0462,-0.0472,-0.0494,-0.0488,-0.051,-0.0507,-0.0483,-0.0483,-0.0536,-0.0521,-0.0494,-0.0562,-0.0518,-0.0525,-0.0568,-0.0581,-0.0591,-0.0575,-0.0435,0,0,0,0,0,-0.0344,-0.0392,-0.0387,-0.0397,-0.0442,-0.048,-0.0484,-0.0469,-0.0451,-0.0474,-0.0475,-0.0442,-0.0497,-0.0472,-0.0478,-0.0508,-0.0557,-0.0562,-0.0567,-0.0636,-0.0649,-0.0661,0,0,0,0,0,0,-0.0348,-0.0361,-0.0385,-0.04,-0.0409,-0.0478,-0.0431,-0.0429,-0.0448,-0.0443,-0.0444,-0.0441,-0.042,-0.0467,-0.0473,-0.0502,-0.0433,-0.0559,-0.0564,-0.0568,-0.064,-0.0651,-0.0661,0,0,0,0,0,-0.0351,-0.0362,-0.0441,-0.0398,-0.0406,-0.0399,-0.0429,-0.0427,-0.0444,-0.0428,-0.0425,-0.0431,-0.0422,-0.0425,-0.047,-0.05,-0.0429,-0.0431,-0.0562,-0.0566,-0.0569,-0.0646,0,0,0,0,0,0,-0.0353,-0.0358,-0.0442,-0.0443,-0.0376,-0.0395,-0.0399,-0.0425,-0.0427,-0.0425,-0.0412,-0.0408,-0.0424,-0.0426,-0.0429,-0.0501,-0.0425,-0.0428,-0.0429,-0.0565,-0.0568,-0.057,0,0,0,0,0,0,-0.0352,-0.036,-0.0442,-0.0416,-0.0414,-0.0391,-0.0394,-0.0425,-0.0427,-0.0412,-0.0408,-0.041,-0.0415,-0.0427,-0.0429,-0.0477,-0.0423,-0.0425,-0.0426,-0.0427,-0.0567,-0.0569,0,0,0,0,0,0,-0.0355,-0.0361,-0.0416,-0.0414,-0.0413,-0.0427,-0.0416,-0.0462,-0.0411,-0.0412,-0.0405,-0.0403,-0.0417,-0.0418,-0.0429,-0.0477,-0.0477,-0.0423,-0.0424,-0.0425,-0.0426,0,0,0,0,0,0,0,-0.0357,-0.0321,-0.0433,-0.0413,-0.0411,-0.0455,-0.0455,-0.0456,-0.0411,-0.0408,-0.0406,-0.0404,-0.0411,-0.0413,-0.0415,-0.0477,0,0,-0.0423,-0.0424,0,0,0,0,0,0,0,0,-0.0317,-0.032,-0.0433,-0.0433,-0.0433,-0.0455,-0.0455,-0.0456,-0.041,-0.0408,-0.0407,-0.0405,-0.0411,-0.0413,-0.0415,0,0,0,0,0,0,0,0,0,0,0,0,0,0,0,-0.0433,-0.0433,0,-0.0455,-0.0455,-0.0455,-0.041,-0.0409,-0.0407,-0.0405,-0.0412,-0.0413,-0.0415,0,0,0,0,0,0,0,0,0,0,0,0,0,0,0,0,0,0,0,0,0,0,0,0,0,0,0,0,0,0,0,0,0,0,0,0,0,0,0,0,0,0,0,0,0,0,0,0,0,0,0,0,0,0,0,0,0,0,0,0,0,0,0,0,0,0,0,0,0]}]]]